This is the latest recevied weather packets stored in our database for station/object DM1HF-13. If no packets are shown the sender has not sent any weather packets the latest 10 day(s).
| Time | Temp. | Humidity | Pressure | Rain* | Wind** | Luminosity | Snow |
|---|---|---|---|---|---|---|---|
| 1777797016 | 23.89° C | 37% | 1016.1 hPa | 0 mm | - | 564 W/m² | - |
| 1777796716 | 23.33° C | 38% | 1016.2 hPa | 0 mm | - | 571 W/m² | - |
| 1777796416 | 23.33° C | 38% | 1016.2 hPa | 0 mm | - | 581 W/m² | - |
| 1777796116 | 22.78° C | 40% | 1016.3 hPa | 0 mm | - | 573 W/m² | - |
| 1777795816 | 22.22° C | 41% | 1016.2 hPa | 0 mm | - | 529 W/m² | - |
| 1777795516 | 22.22° C | 40% | 1016.3 hPa | 0 mm | - | 463 W/m² | - |
| 1777795216 | 22.22° C | 41% | 1016.3 hPa | 0 mm | - | 357 W/m² | - |
| 1777794916 | 21.67° C | 40% | 1016.2 hPa | 0 mm | - | 385 W/m² | - |
| 1777794616 | 21.67° C | 41% | 1016.2 hPa | 0 mm | - | 399 W/m² | - |
| 1777794316 | 21.67° C | 42% | 1016.3 hPa | 0 mm | - | 525 W/m² | - |
| 1777794016 | 21.11° C | 42% | 1016.2 hPa | 0 mm | - | 531 W/m² | - |
| 1777793716 | 21.11° C | 43% | 1016.2 hPa | 0 mm | - | 539 W/m² | - |
| 1777793416 | 20.56° C | 43% | 1016.2 hPa | 0 mm | - | 527 W/m² | - |
| 1777793116 | 20.56° C | 44% | 1016.2 hPa | 0 mm | - | 517 W/m² | - |
| 1777792816 | 20° C | 43% | 1016.1 hPa | 0 mm | - | 513 W/m² | - |
| 1777792516 | 19.44° C | 44% | 1016.2 hPa | 0 mm | - | 500 W/m² | - |
| 1777792216 | 19.44° C | 44% | 1016.2 hPa | 0 mm | - | 479 W/m² | - |
| 1777791916 | 19.44° C | 45% | 1016.2 hPa | 0 mm | - | 481 W/m² | - |
| 1777791616 | 18.89° C | 46% | 1016.3 hPa | 0 mm | - | 457 W/m² | - |
| 1777791316 | 18.33° C | 45% | 1016.1 hPa | 0 mm | - | 443 W/m² | - |
| 1777791016 | 18.33° C | 46% | 1016.2 hPa | 0 mm | - | 334 W/m² | - |
| 1777790716 | 17.78° C | 47% | 1016.2 hPa | 0 mm | - | 136 W/m² | - |
| 1777790416 | 17.78° C | 48% | 1016.2 hPa | 0 mm | - | 141 W/m² | - |
| 1777790116 | 17.22° C | 48% | 1016.2 hPa | 0 mm | - | 140 W/m² | - |
| 1777789816 | 16.67° C | 49% | 1016.2 hPa | 0 mm | - | 136 W/m² | - |
* Rain latest hour (hover to see other rain measurements)
** Current wind speed in m/s (hover to see current wind gust speed)